User: anonymous   Login
Location: Unspecified
(0.0000°N, 0.0000°E)
Time: 16:38:40
(UTC+00:00)
Language:

PAYLOAD C - Orbit

View from above orbital plane
View from above orbital plane
View from above satellite
View from above satellite

Ground track
Ground track

The orbit data is extracted from the following two-line orbital elements,

1 27057U 01058C   17204.90337857 -.00000011 +00000-0 -12071-3 0  9999
2 27057 082.5451 134.8366 0000351 095.3019 264.8112 12.61542292717019
Epoch (UTC): 23 July 2017 21:40:51
Eccentricity: 0.0000351
inclination: 82.5451°
perigee height: 1416 km
apogee height: 1417 km
right ascension of ascending node: 134.8366°
argument of perigee: 95.3019°
revolutions per day: 12.61542292
mean anomaly at epoch: 264.8112°
orbit number at epoch: 71701

The dashed part of the orbit path shows where the satellite is in the earth's shadow,  

DLR